TimeCEST,TemperatureF,Dew PointF,Humidity,Sea Level PressureIn,VisibilityMPH,Wind Direction,Wind SpeedMPH,Gust SpeedMPH,PrecipitationIn,Events,Conditions,WindDirDegrees,DateUTC
12:00 AM,66.2,62.6,88,29.98,-9999.0,Calm,Calm,-,N/A,,Clear,0,2012-10-08 22:00:00
12:30 AM,64.4,62.6,94,29.98,5.0,Variable,2.3,-,N/A,,Unknown,0,2012-10-08 22:30:00
1:00 AM,64.4,62.6,94,29.98,5.0,Variable,2.3,-,N/A,,Unknown,0,2012-10-08 23:00:00
1:30 AM,64.4,62.6,94,29.98,6.2,Variable,1.2,-,N/A,,Unknown,0,2012-10-08 23:30:00
2:00 AM,64,62,90,29.98,6,North,2.3,,,,Clear,0,2012-10-09 00:00:00
2:00 AM,64.4,62.6,94,29.98,5.6,Variable,2.3,-,N/A,,Unknown,0,2012-10-09 00:00:00
2:30 AM,64.4,62.6,94,29.95,6.2,Variable,2.3,-,N/A,,Unknown,0,2012-10-09 00:30:00
3:00 AM,64.4,62.6,94,29.95,6.2,West,5.8,-,N/A,,Unknown,260,2012-10-09 01:00:00
3:30 AM,64.4,60.8,88,29.95,6.2,NW,3.5,-,N/A,,Unknown,320,2012-10-09 01:30:00
4:00 AM,62.6,60.8,94,29.95,6.2,Variable,1.2,-,N/A,,Unknown,0,2012-10-09 02:00:00
4:30 AM,62.6,60.8,94,29.95,6.2,Variable,2.3,-,N/A,,Unknown,0,2012-10-09 02:30:00
5:00 AM,62.6,60.8,94,29.95,-9999.0,NNE,4.6,-,N/A,,Clear,30,2012-10-09 03:00:00
5:30 AM,60.8,60.8,100,29.95,-9999.0,WSW,4.6,-,N/A,,Clear,240,2012-10-09 03:30:00
6:00 AM,64.4,62.6,94,29.95,-9999.0,WSW,11.5,-,N/A,,Clear,250,2012-10-09 04:00:00
6:30 AM,66.2,60.8,83,29.95,-9999.0,SSW,9.2,-,N/A,,Clear,210,2012-10-09 04:30:00
7:04 AM,68.0,60.8,78,29.95,-9999.0,SSW,9.2,-,N/A,,Clear,210,2012-10-09 05:04:00
7:30 AM,68.0,59.0,73,29.95,-9999.0,Variable,9.2,-,N/A,,Clear,0,2012-10-09 05:30:00
8:00 AM,69,58,60,29.98,9,West,10.4,,,,Partly Cloudy,270,2012-10-09 06:00:00
8:00 AM,69.8,59.0,68,29.98,-9999.0,West,9.2,-,N/A,,Clear,270,2012-10-09 06:00:00
8:34 AM,69.8,57.2,64,29.98,-9999.0,SSW,6.9,-,N/A,,Clear,210,2012-10-09 06:34:00
9:00 AM,69.8,59.0,68,29.98,-9999.0,SSW,9.2,-,N/A,,Clear,200,2012-10-09 07:00:00
9:30 AM,71.6,59.0,64,29.98,-9999.0,SW,11.5,-,N/A,,Clear,220,2012-10-09 07:30:00
10:00 AM,71.6,60.8,69,29.98,-9999.0,SW,11.5,-,N/A,,Clear,220,2012-10-09 08:00:00
10:30 AM,73.4,59.0,61,29.98,-9999.0,SSW,10.4,-,N/A,,Clear,210,2012-10-09 08:30:00
11:00 AM,75.2,59.0,57,29.98,-9999.0,West,10.4,-,N/A,,Clear,260,2012-10-09 09:00:00
11:30 AM,77.0,57.2,50,29.98,-9999.0,WNW,15.0,-,N/A,,Clear,290,2012-10-09 09:30:00
12:04 PM,77.0,59.0,54,29.98,-9999.0,West,15.0,-,N/A,,Clear,280,2012-10-09 10:04:00
12:38 PM,78.8,59.0,51,29.98,-9999.0,West,11.5,-,N/A,,Clear,260,2012-10-09 10:38:00
1:00 PM,78.8,57.2,47,29.95,6.2,WNW,13.8,-,N/A,,Partly Cloudy,290,2012-10-09 11:00:00
1:30 PM,80.6,57.2,45,29.95,6.2,NW,17.3,-,N/A,,Partly Cloudy,310,2012-10-09 11:30:00
2:00 PM,81,57,33,29.94,37,WNW,13.8,,,,Clear,300,2012-10-09 12:00:00
2:08 PM,80.6,57.2,45,29.92,6.2,WNW,15.0,-,N/A,,Partly Cloudy,290,2012-10-09 12:08:00
2:30 PM,82.4,57.2,42,29.92,6.2,NW,11.5,-,N/A,,Partly Cloudy,310,2012-10-09 12:30:00
3:00 PM,82.4,55.4,39,29.92,-9999.0,NW,13.8,-,N/A,,Clear,310,2012-10-09 13:00:00
3:30 PM,80.6,57.2,45,29.92,-9999.0,WNW,15.0,-,N/A,,Clear,290,2012-10-09 13:30:00
4:00 PM,80.6,57.2,45,29.92,-9999.0,West,15.0,-,N/A,,Clear,280,2012-10-09 14:00:00
4:30 PM,80.6,59.0,48,29.92,-9999.0,West,17.3,-,N/A,,Clear,270,2012-10-09 14:30:00
5:00 PM,80.6,57.2,45,29.92,-9999.0,West,17.3,-,N/A,,Clear,280,2012-10-09 15:00:00
6:00 PM,77.0,59.0,54,29.92,-9999.0,West,13.8,-,N/A,,Clear,280,2012-10-09 16:00:00
6:34 PM,77.0,59.0,54,29.92,-9999.0,WNW,12.7,-,N/A,,Clear,290,2012-10-09 16:34:00
7:00 PM,75.2,59.0,57,29.92,-9999.0,West,10.4,-,N/A,,Clear,260,2012-10-09 17:00:00
7:30 PM,71.6,59.0,64,29.92,-9999.0,West,9.2,-,N/A,,Clear,260,2012-10-09 17:30:00
8:00 PM,72,59,54,29.95,31,West,11.5,,,,Scattered Clouds,270,2012-10-09 18:00:00
8:00 PM,71.6,59.0,64,29.95,-9999.0,West,11.5,-,N/A,,Clear,270,2012-10-09 18:00:00
8:30 PM,73.4,57.2,57,29.92,-9999.0,WNW,10.4,-,N/A,,Clear,290,2012-10-09 18:30:00
9:00 PM,71.6,57.2,60,29.95,-9999.0,ENE,4.6,-,N/A,,Clear,60,2012-10-09 19:00:00
9:30 PM,69.8,57.2,64,29.95,-9999.0,North,5.8,-,N/A,,Clear,350,2012-10-09 19:30:00
10:00 PM,68.0,57.2,68,29.95,-9999.0,SW,2.3,-,N/A,,Clear,230,2012-10-09 20:00:00
10:30 PM,68.0,57.2,68,29.95,-9999.0,WSW,3.5,-,N/A,,Clear,240,2012-10-09 20:30:00
11:00 PM,68.0,57.2,68,29.95,-9999.0,West,4.6,-,N/A,,Clear,260,2012-10-09 21:00:00
11:30 PM,66.2,57.2,73,29.95,-9999.0,WSW,5.8,-,N/A,,Clear,250,2012-10-09 21:30:00